TimeEDT,TemperatureF,Dew PointF,Humidity,Sea Level PressureIn,VisibilityMPH,Wind Direction,Wind SpeedMPH,Gust SpeedMPH,PrecipitationIn,Events,Conditions,WindDirDegrees,DateUTC
12:15 AM,64.4,62.6,94,30.04,7.0,Calm,Calm,-,0.02,Rain,Light Rain,0,2013-07-11 04:15:00
12:35 AM,64.4,62.6,94,30.03,10.0,Calm,Calm,-,0.03,Rain,Light Rain,0,2013-07-11 04:35:00
12:55 AM,64.4,62.6,94,30.03,7.0,NNE,3.5,-,0.03,Rain,Rain,20,2013-07-11 04:55:00
1:15 AM,-9999,-9999,N/A,-9999,-9999.0,North,-9999.0,-,N/A,,Unknown,0,2013-07-11 05:15:00
1:35 AM,64.4,62.6,94,30.02,5.0,Calm,Calm,-,N/A,,Light Drizzle,0,2013-07-11 05:35:00
1:55 AM,64.4,62.6,94,30.03,7.0,West,4.6,-,N/A,,Mostly Cloudy,270,2013-07-11 05:55:00
2:35 AM,64.4,62.6,94,30.03,5.0,Calm,Calm,-,N/A,,Mist,0,2013-07-11 06:35:00
2:55 AM,64.4,62.6,94,30.03,7.0,NW,4.6,-,N/A,,Overcast,320,2013-07-11 06:55:00
3:15 AM,64.4,62.6,94,30.03,7.0,Calm,Calm,-,N/A,,Overcast,0,2013-07-11 07:15:00
3:35 AM,64.4,62.6,94,30.03,7.0,Calm,Calm,-,N/A,,Unknown,0,2013-07-11 07:35:00
3:55 AM,62.6,60.8,94,30.03,10.0,WNW,3.5,-,N/A,,Overcast,300,2013-07-11 07:55:00
4:15 AM,62.6,60.8,94,30.03,10.0,Calm,Calm,-,N/A,,Overcast,0,2013-07-11 08:15:00
4:35 AM,62.6,60.8,94,30.03,7.0,Calm,Calm,-,N/A,,Unknown,0,2013-07-11 08:35:00
4:55 AM,62.6,60.8,94,30.03,7.0,Calm,Calm,-,N/A,,Overcast,0,2013-07-11 08:55:00
5:15 AM,62.6,60.8,94,30.03,1.5,Calm,Calm,-,N/A,,Mostly Cloudy,0,2013-07-11 09:15:00
5:35 AM,62.6,60.8,94,30.03,3.0,Calm,Calm,-,N/A,,Mist,0,2013-07-11 09:35:00
5:55 AM,62.6,60.8,94,30.03,2.5,Calm,Calm,-,N/A,,Mostly Cloudy,0,2013-07-11 09:55:00
6:15 AM,62.6,60.8,94,30.04,0.8,Calm,Calm,-,N/A,,Overcast,0,2013-07-11 10:15:00
6:35 AM,62.6,60.8,94,30.05,1.2,Calm,Calm,-,N/A,,Overcast,0,2013-07-11 10:35:00
6:55 AM,62.6,60.8,94,30.05,1.8,Calm,Calm,-,N/A,,Mist,0,2013-07-11 10:55:00
7:15 AM,62.6,60.8,94,30.05,4.0,Calm,Calm,-,N/A,,Overcast,0,2013-07-11 11:15:00
7:35 AM,62.6,62.6,100,30.05,7.0,Calm,Calm,-,N/A,,Overcast,0,2013-07-11 11:35:00
7:55 AM,64.4,62.6,94,30.05,-9999.0,Calm,Calm,-,N/A,,Unknown,0,2013-07-11 11:55:00
8:15 AM,64.4,62.6,94,30.06,10.0,Calm,Calm,-,N/A,,Mostly Cloudy,0,2013-07-11 12:15:00
8:35 AM,64.4,62.6,94,30.06,10.0,WSW,3.5,-,N/A,,Mostly Cloudy,250,2013-07-11 12:35:00
8:55 AM,66.2,62.6,88,30.06,-9999.0,Calm,Calm,-,N/A,,Unknown,0,2013-07-11 12:55:00
9:15 AM,68.0,62.6,83,30.06,10.0,SW,3.5,-,N/A,,Mostly Cloudy,220,2013-07-11 13:15:00
9:35 AM,68.0,62.6,83,30.06,10.0,Calm,Calm,-,N/A,,Mostly Cloudy,0,2013-07-11 13:35:00
9:55 AM,68.0,62.6,83,30.05,10.0,WSW,3.5,-,N/A,,Overcast,250,2013-07-11 13:55:00
10:15 AM,68.0,62.6,83,30.06,10.0,WSW,3.5,-,N/A,,Overcast,250,2013-07-11 14:15:00
10:35 AM,69.8,62.6,78,30.05,10.0,Calm,Calm,-,N/A,,Overcast,0,2013-07-11 14:35:00
10:55 AM,69.8,62.6,78,30.05,10.0,SW,3.5,-,N/A,,Overcast,230,2013-07-11 14:55:00
11:15 AM,69.8,62.6,78,30.05,10.0,Calm,Calm,-,N/A,,Overcast,0,2013-07-11 15:15:00
11:35 AM,71.6,60.8,69,30.05,10.0,Calm,Calm,-,N/A,,Overcast,0,2013-07-11 15:35:00
11:55 AM,71.6,62.6,73,30.05,10.0,Calm,Calm,-,N/A,,Overcast,0,2013-07-11 15:55:00
12:15 PM,71.6,62.6,73,30.05,10.0,SSE,3.5,-,N/A,,Overcast,150,2013-07-11 16:15:00
12:35 PM,71.6,62.6,73,30.05,10.0,SSW,4.6,-,N/A,,Overcast,200,2013-07-11 16:35:00
12:55 PM,71.6,62.6,73,30.05,10.0,SW,5.8,-,N/A,,Overcast,230,2013-07-11 16:55:00
1:15 PM,71.6,62.6,73,30.04,10.0,SSE,5.8,-,N/A,,Mostly Cloudy,160,2013-07-11 17:15:00
1:35 PM,73.4,62.6,69,30.04,10.0,SSW,5.8,-,N/A,,Overcast,200,2013-07-11 17:35:00
1:55 PM,73.4,62.6,69,30.03,10.0,SW,8.1,-,N/A,,Overcast,230,2013-07-11 17:55:00
2:15 PM,73.4,62.6,69,30.03,10.0,WSW,6.9,-,N/A,,Overcast,240,2013-07-11 18:15:00
2:35 PM,75.2,60.8,61,30.03,10.0,WSW,5.8,-,N/A,,Mostly Cloudy,240,2013-07-11 18:35:00
2:55 PM,73.4,59.0,61,30.02,10.0,SW,5.8,-,N/A,,Mostly Cloudy,230,2013-07-11 18:55:00
3:15 PM,73.4,60.8,65,30.02,10.0,WSW,4.6,-,N/A,,Overcast,250,2013-07-11 19:15:00
3:35 PM,73.4,60.8,65,30.01,10.0,SW,6.9,-,N/A,,Mostly Cloudy,230,2013-07-11 19:35:00
3:55 PM,73.4,62.6,69,30.00,10.0,SW,4.6,-,N/A,,Scattered Clouds,220,2013-07-11 19:55:00
4:15 PM,73.4,62.6,69,30.00,10.0,WSW,5.8,-,N/A,,Mostly Cloudy,250,2013-07-11 20:15:00
4:35 PM,73.4,60.8,65,30.00,10.0,West,4.6,-,N/A,,Mostly Cloudy,280,2013-07-11 20:35:00
4:55 PM,73.4,60.8,65,30.00,10.0,WSW,3.5,-,N/A,,Scattered Clouds,250,2013-07-11 20:55:00
5:15 PM,73.4,62.6,69,29.99,10.0,WSW,5.8,-,N/A,,Scattered Clouds,240,2013-07-11 21:15:00
5:35 PM,73.4,62.6,69,29.98,10.0,SW,4.6,-,N/A,,Scattered Clouds,230,2013-07-11 21:35:00
5:55 PM,73.4,62.6,69,29.98,10.0,SW,4.6,-,N/A,,Clear,220,2013-07-11 21:55:00
6:15 PM,73.4,60.8,65,29.99,10.0,WSW,6.9,-,N/A,,Scattered Clouds,250,2013-07-11 22:15:00
6:35 PM,69.8,60.8,73,30.00,10.0,NNE,11.5,16.1,0.01,Rain,Rain,20,2013-07-11 22:35:00
6:55 PM,66.2,62.6,88,30.01,5.0,NNE,4.6,-,0.05,Rain,Rain,30,2013-07-11 22:55:00
7:15 PM,66.2,62.6,88,30.02,10.0,NE,3.5,-,N/A,,Light Drizzle,50,2013-07-11 23:15:00
7:35 PM,66.2,62.6,88,30.01,10.0,Calm,Calm,-,N/A,,Overcast,0,2013-07-11 23:35:00
7:55 PM,68.0,64.4,88,30.00,10.0,Calm,Calm,-,N/A,,Overcast,0,2013-07-11 23:55:00
8:15 PM,68.0,62.6,83,30.00,10.0,Calm,Calm,-,N/A,,Overcast,0,2013-07-12 00:15:00
8:35 PM,68.0,62.6,83,29.99,10.0,Calm,Calm,-,N/A,,Overcast,0,2013-07-12 00:35:00
8:55 PM,68.0,62.6,83,30.00,10.0,Calm,Calm,-,N/A,,Overcast,0,2013-07-12 00:55:00
9:15 PM,66.2,62.6,88,30.01,10.0,Calm,Calm,-,N/A,,Mostly Cloudy,0,2013-07-12 01:15:00
9:35 PM,66.2,62.6,88,30.02,10.0,Calm,Calm,-,N/A,,Scattered Clouds,0,2013-07-12 01:35:00
9:55 PM,64.4,62.6,94,30.02,2.5,Calm,Calm,-,N/A,,Scattered Clouds,0,2013-07-12 01:55:00
10:15 PM,64.4,60.8,88,30.01,0.8,Calm,Calm,-,N/A,,Mostly Cloudy,0,2013-07-12 02:15:00
10:35 PM,64.4,62.6,94,30.01,0.8,Calm,Calm,-,N/A,,Mostly Cloudy,0,2013-07-12 02:35:00
10:55 PM,64.4,62.6,94,30.01,0.2,Calm,Calm,-,N/A,Fog,Fog,0,2013-07-12 02:55:00
11:15 PM,62.6,60.8,94,30.01,0.2,Calm,Calm,-,N/A,Fog,Fog,0,2013-07-12 03:15:00
11:35 PM,62.6,60.8,94,30.01,0.2,Calm,Calm,-,N/A,Fog,Fog,0,2013-07-12 03:35:00
11:55 PM,62.6,60.8,94,30.02,0.5,NNE,3.5,-,N/A,Fog,Fog,20,2013-07-12 03:55:00